This is the latest recevied weather packets stored in our database for station/object KCXW. If no packets are shown the sender has not sent any weather packets the latest 1 day(s).
| Time | Temp. | Humidity | Pressure | Rain* | Wind** | Luminosity | Snow |
|---|---|---|---|---|---|---|---|
| 1778059408 | 10.56° C | 100% | 1011.9 hPa | - | - | - | - |
| 1778057611 | 10.56° C | 100% | 1011.9 hPa | - | - | - | - |
| 1778057013 | 10.56° C | 100% | 1011.9 hPa | - | - | - | - |
| 1778055206 | 10.56° C | 100% | 1010.2 hPa | - | - | - | - |
| 1778054607 | 10.56° C | 100% | 1010.2 hPa | - | - | - | - |
| 1778053409 | 11.67° C | 100% | 1009.8 hPa | - | - | - | - |
| 1778051609 | 11.67° C | 100% | 1009.8 hPa | - | - | - | - |
| 1778049806 | 11.67° C | 100% | 1009.8 hPa | - | - | - | - |
| 1778049213 | 12.78° C | 100% | 1009.1 hPa | - | - | - | - |
| 1778046808 | 12.78° C | 100% | 1008.1 hPa | - | - | - | - |
| 1778044407 | 15° C | 100% | 1007.1 hPa | - | - | - | - |
| 1778043206 | 17.78° C | 100% | 1007.1 hPa | - | - | - | - |
| 1778042609 | 17.78° C | 100% | 1007.1 hPa | - | - | - | - |
| 1778042008 | 20.56° C | 100% | 1006.8 hPa | - | - | - | - |
| 1778040810 | 21.67° C | 100% | 1006.4 hPa | - | - | - | - |
| 1778040328 | 21.67° C | 100% | 1006.4 hPa | - | - | - | - |
| 1778039013 | 21.67° C | 100% | 1006.1 hPa | - | - | - | - |
| 1778038412 | 21.67° C | 100% | 1005.4 hPa | - | - | - | - |
| 1778037207 | 21.67° C | 100% | 1006.1 hPa | - | - | - | - |
| 1778036605 | 21.67° C | 100% | 1006.1 hPa | - | - | - | - |
| 1778034805 | 21.67° C | 100% | 1005.8 hPa | - | - | - | - |
| 1778034208 | 21.67° C | 100% | 1005.8 hPa | - | - | - | - |
| 1778033607 | 21.67° C | 100% | 1005.8 hPa | - | - | - | - |
| 1778033008 | 21.67° C | 100% | 1005.8 hPa | - | - | - | - |
| 1778032408 | 21.67° C | 100% | 1005.8 hPa | - | - | - | - |
* Rain since midnight (hover to see other rain measurements)
** Current wind speed in m/s (hover to see current wind gust speed)